Location: El Bakhil
(32.7726°N, 5.5387°W)
Time: 18:58:29
(UTC+00:00)

Envisat - Pass Details

Date: 06 December 2021
Orbit: 764 x 766 km, 98.2° (Epoch: 18 January)

Event Time Altitude Azimuth Distance (km) Brightness Sun altitude
Rises 04:21:37 0° 29° (NNE) 3,234 6.5 -34.8°
Reaches altitude 10° 04:24:24 10° 44° (NE) 2,303 5.8 -34.2°
Maximum altitude 04:28:22 23° 95° (E) 1,590 5.2 -33.4°
Drops below altitude 10° 04:32:18 10° 147° (SSE) 2,292 5.9 -32.6°
Sets 04:35:03 0° 162° (SSE) 3,213 6.5 -32.0°
